CZ-2C R/B, 40287

Orbit data source: Space-Track

CZ-2C R/B, 40287 is space debris in SSO originally from a launch on Mon, 27 Oct 2014 UTC launched from the Jiuquan Satellite Launch Center, China (JSC). Debris objects in space refer to the collection of defunct objects orbiting the Earth. Examples of debris include non-operational satellites, rocket bodies, and fragments generated from explosions, collisions, or faulty payload assembly.

Loading next visibility...
Identifier
40287, 2014-066B
Orbit
SSO
Country
Flag of CNCN / PRC
Related business
Manufacturer
CALT
Mission
Spacecraft
Bus & Motor
CZ-2 STAGE 2, Unknown motor
Mass
~3,800 kg wet, ~3,800 kg dry
Launch date (UTC)
2014-10-27 (11 years ago)
Launch vehicle
Unknown
Launch site
Jiuquan Satellite Launch Center, China (JSC)
Object type
Payload
Rocket body
Debris
Shape & HBR
Cyl, 4.2 m
Radar Cross Section
26.048 m², Large (>1 m²)

Expand to show TLE details & history
Last TLE update: 18 hours ago

TLE from 18 hours ago
0 CZ-2C R/B
1 40287U 14066B   25338.63813272  .00001291  00000-0  23619-3 0  9998
2 40287  97.7415   4.7585 0008063 184.5393 175.5741 14.67408809593818
Epoch: 2025-12-04T15:18Z
TLE epoch observation values (Epoch: 2025-12-04T15:18:54.667Z)
Latitude
-0.00003°
Longitude
61.33902°
Altitude
678.028 km
Speed
7.515 km/s
True Right ascension
00h 19m 02s
True Declination
0° 00' 00"
Sunlit
Object was in daylight at epoch
Visualization orbit readout
Latitude
Unknown
Longitude
Unknown
Altitude
Unknown
Speed
Unknown
Apparent Right ascension
Unknown
Apparent Declination
Unknown
Sunlit
N/A
Visualization observer readout
Local Sidereal Time
07:16:18
Azimuth
Unknown
Elevation
Unknown
Doppler factor
Unknown
Orbital elements
Apogee altitude
672.083 km
Perigee altitude
660.723 km
Semi-major axis
7,044.54 km
Eccentricity
0.00081
Inclination
97.7415°
RAAN
4.7585°
Arg. of periapsis
184.5393°
True anomaly
175.58122°
Mean anomaly
175.5741°
Eccentric anomaly
175.57766°
Mean motion
3.67083 °/min
Orbital period
98.07 mins
BSTAR
0.00023619
Loading maneuver chart data...
Computing Atmospheric mass density...
Loading historical data...
Loading historical data...
Loading historical data...
Loading historical data...
Loading historical data...
Loading historical data...
Loading historical data...
Other satellites on launch #66 in the year 2014 (2014-10-27 UTC)

Documentation

Showing up to 5 results
|